Terug naar catalogus

STARLINK-5754

ActiefCommunicatieVLEO
NORAD 55579·PAYLOAD·🇺🇸 United States

Gelanceerd Feb 12, 2023 vanaf Cape Canaveral Space Force Station

Loading…

Volgende Passages (komende 24 uur)

TLE

VersSource: CelesTrak SupGP

Epoch: Sep 14, 2026, 21:24 UTC

1 55579C 23020L   26257.89215278  .00012284  00000+0  44490-3 0  2579
2 55579  43.0043  16.6496 0001755 278.8068 284.5365 15.27574072    10

Volg STARLINK-5754 in realtime met AllMySat

Download on the App Store